Location: Elaina
(34.1445°N, 106.7742°W)
Time: 03:23:03
(UTC+00:00)

Cosmos 2369 - Pass Details

Date: 11 December 2025
Orbit: 838 x 854 km, 71.0° (Epoch: 12 January)

Event Time Altitude Azimuth Distance (km) Brightness Sun altitude
Exits shadow 12:09:01 51° 299° (WNW) 1,055 3.8 -22.9°
Maximum altitude 12:10:06 61° 253° (WSW) 954 3.6 -22.7°
Drops below altitude 10° 12:15:38 10° 174° (S) 2,450 6.3 -21.6°
Sets 12:18:05 0° 171° (S) 3,379 7.1 -21.1°
